| time (UTC) | temp F | wind direction | speed knots | gust knots | rain 1hr in | rain 24hr in | rain mn in | humidity % | barometer mb |
| 20260504204116 | 66 | 225 | 3.5 | 6.1 | 0.00 | 0.00 | 0.00 | 23 | 1014.5 |
| 20260504203140 | 66 | 225 | 3.5 | 6.1 | 0.00 | 0.00 | 0.00 | 24 | 1014.5 |
| 20260504202136 | 66 | 225 | 3.5 | 6.1 | 0.00 | 0.00 | 0.00 | 24 | 1014.6 |
| 20260504201220 | 66 | 270 | 3.5 | 3.5 | 0.00 | 0.00 | 0.00 | 23 | 1014.5 |
| 20260504200116 | 67 | 180 | 3.5 | 4.3 | 0.00 | 0.00 | 0.00 | 23 | 1014.6 |
| 20260504195140 | 67 | 90 | 8.7 | 11.3 | 0.00 | 0.00 | 0.00 | 23 | 1014.6 |
| 20260504194116 | 68 | 225 | 6.1 | 7.8 | 0.00 | 0.00 | 0.00 | 24 | 1014.6 |
| 20260504193200 | 67 | 225 | 7.0 | 9.6 | 0.00 | 0.00 | 0.00 | 24 | 1014.6 |
| 20260504192136 | 67 | 180 | 8.7 | 11.3 | 0.00 | 0.00 | 0.00 | 26 | 1014.6 |
| 20260504191200 | 69 | 180 | 9.6 | 13.0 | 0.00 | 0.00 | 0.00 | 22 | 1014.5 |
| 20260504190136 | 69 | 180 | 9.6 | 11.3 | 0.00 | 0.00 | 0.00 | 22 | 1014.6 |
| 20260504185140 | 70 | 180 | 7.8 | 8.7 | 0.00 | 0.00 | 0.00 | 22 | 1014.4 |
| 20260504184116 | 70 | 180 | 9.6 | 13.0 | 0.00 | 0.00 | 0.00 | 21 | 1014.5 |
| 20260504183220 | 71 | 180 | 9.6 | 13.0 | 0.00 | 0.00 | 0.00 | 22 | 1014.1 |
| 20260504182216 | 71 | 180 | 8.7 | 10.4 | 0.00 | 0.00 | 0.00 | 21 | 1014.3 |
| 20260504181220 | 71 | 180 | 8.7 | 11.3 | 0.00 | 0.00 | 0.00 | 21 | 1014.2 |
| 20260504180136 | 72 | 180 | 7.8 | 9.6 | 0.00 | 0.00 | 0.00 | 21 | 1014.3 |
| 20260504175200 | 72 | 225 | 9.6 | 11.3 | 0.00 | 0.00 | 0.00 | 21 | 1014.2 |
| 20260504174116 | 73 | 225 | 7.0 | 7.8 | 0.00 | 0.00 | 0.00 | 20 | 1014.2 |
| 20260504173140 | 74 | 225 | 5.2 | 7.0 | 0.00 | 0.00 | 0.00 | 21 | 1014.3 |
| 20260504172116 | 74 | 180 | 5.2 | 7.0 | 0.00 | 0.00 | 0.00 | 20 | 1014.0 |
| 20260504171140 | 75 | 180 | 7.0 | 9.6 | 0.00 | 0.00 | 0.00 | 20 | 1014.2 |
| 20260504170136 | 75 | 180 | 7.0 | 10.4 | 0.00 | 0.00 | 0.00 | 20 | 1014.1 |
| 20260504160116 | 79 | 158 | 6.1 | 7.0 | 0.00 | 0.00 | 0.00 | 20 | 1014.6 |
| 20260504151140 | 79 | 225 | 7.8 | 10.4 | 0.00 | 0.00 | 0.00 | 20 | 1014.8 |
| 20260504150136 | 79 | 180 | 7.0 | 8.7 | 0.00 | 0.00 | 0.00 | 20 | 1014.6 |
| 20260504141200 | 79 | 315 | 6.1 | 9.6 | 0.00 | 0.00 | 0.00 | 20 | 1015.4 |
| 20260504140116 | 79 | 248 | 3.5 | 3.5 | 0.00 | 0.00 | 0.00 | 20 | 1015.6 |
| 20260504110644 | 76 | 180 | 8.7 | 9.6 | 0.00 | 0.00 | 0.00 | 20 | 1017.2 |
| 20260504081708 | 64 | 90 | 3.5 | 4.3 | 0.00 | 0.00 | 0.00 | 33 | 1018.7 |
| 20260504080709 | 63 | 0 | 3.5 | 4.3 | 0.00 | 0.00 | 0.00 | 38 | 1018.9 |
| 20260504050648 | 58 | 180 | 5.2 | 6.1 | 0.00 | 0.00 | 0.00 | 37 | 1018.6 |
| 20260504045624 | 57 | 180 | 3.5 | 3.5 | 0.00 | 0.00 | 0.00 | 38 | 1018.6 |
| 20260504044748 | 56 | 180 | 2.6 | 3.5 | 0.00 | 0.00 | 0.00 | 40 | 1018.5 |
| 20260504043624 | 56 | 225 | 3.5 | 4.3 | 0.00 | 0.00 | 0.00 | 38 | 1018.2 |
| 20260504042708 | 56 | 225 | 1.7 | 2.6 | 0.00 | 0.00 | 0.00 | 38 | 1018.3 |
| 20260504041624 | 55 | 270 | 1.7 | 1.7 | 0.00 | 0.00 | 0.00 | 40 | 1018.2 |
| 20260504040728 | 55 | 180 | 2.6 | 3.5 | 0.00 | 0.00 | 0.00 | 40 | 1018.3 |
| 20260504035644 | 54 | 180 | 1.7 | 2.6 | 0.00 | 0.00 | 0.00 | 42 | 1018.4 |
| 20260504034709 | 54 | 225 | 3.5 | 4.3 | 0.00 | 0.00 | 0.00 | 41 | 1018.2 |
| 20260504033624 | 54 | 270 | 1.7 | 3.5 | 0.00 | 0.00 | 0.00 | 41 | 1018.2 |
| 20260504032728 | 55 | 225 | 2.6 | 3.5 | 0.00 | 0.00 | 0.00 | 39 | 1018.2 |
| 20260504031624 | 55 | 225 | 2.6 | 3.5 | 0.00 | 0.00 | 0.00 | 38 | 1018.3 |
| 20260504030708 | 55 | 225 | 3.5 | 5.2 | 0.00 | 0.00 | 0.00 | 37 | 1018.3 |
| 20260504025624 | 55 | 225 | 6.1 | 7.0 | 0.00 | 0.00 | 0.00 | 36 | 1018.2 |
| 20260504024649 | 56 | 225 | 7.0 | 8.7 | 0.00 | 0.00 | 0.00 | 35 | 1018.2 |
| 20260504023624 | 56 | 180 | 5.2 | 8.7 | 0.00 | 0.00 | 0.00 | 35 | 1018.4 |
| 20260504022808 | 56 | 270 | 4.3 | 7.0 | 0.00 | 0.00 | 0.00 | 38 | 1018.5 |
| 20260504021704 | 55 | 338 | 4.3 | 8.7 | 0.00 | 0.00 | 0.00 | 37 | 1018.5 |
| 20260504020648 | 55 | 315 | 3.5 | 5.2 | 0.00 | 0.00 | 0.00 | 39 | 1018.5 |
| 20260504015624 | 55 | 315 | 3.5 | 5.2 | 0.00 | 0.00 | 0.00 | 38 | 1018.4 |
| 20260504014648 | 55 | 225 | 3.5 | 4.3 | 0.00 | 0.00 | 0.00 | 39 | 1018.3 |
| 20260504013646 | 55 | 270 | 2.6 | 3.5 | 0.00 | 0.00 | 0.00 | 39 | 1018.4 |
| 20260504012708 | 56 | 225 | 3.5 | 5.2 | 0.00 | 0.00 | 0.00 | 40 | 1018.3 |
| 20260504011624 | 56 | 225 | 1.7 | 1.7 | 0.00 | 0.00 | 0.00 | 38 | 1018.3 |
| 20260504010648 | 56 | 225 | 0.9 | 1.7 | 0.00 | 0.00 | 0.00 | 38 | 1018.4 |
| 20260504005624 | 55 | 270 | 1.7 | 1.7 | 0.00 | 0.00 | 0.00 | 37 | 1018.0 |
| 20260504004648 | 55 | 270 | 0.9 | 1.7 | 0.00 | 0.00 | 0.00 | 36 | 1018.1 |
| 20260504003644 | 56 | 225 | 1.7 | 1.7 | 0.00 | 0.00 | 0.00 | 34 | 1018.2 |
| 20260504002648 | 57 | 180 | 1.7 | 1.7 | 0.00 | 0.00 | 0.00 | 34 | 1018.2 |
| 20260504001626 | 57 | 180 | 1.7 | 1.7 | 0.00 | 0.00 | 0.00 | 36 | 1018.1 |
| 20260504000708 | 57 | 180 | 1.7 | 1.7 | 0.00 | 0.00 | 0.00 | 35 | 1018.1 |
| 20260503235644 | 57 | 180 | 1.7 | 2.6 | 0.00 | 0.00 | 0.00 | 35 | 1018.4 |
| 20260503234709 | 58 | 315 | 0.9 | 1.7 | 0.00 | 0.00 | 0.00 | 36 | 1018.1 |
| 20260503233644 | 58 | 270 | 0.9 | 1.7 | 0.00 | 0.00 | 0.00 | 35 | 1018.2 |
| 20260503232648 | 58 | 315 | 1.7 | 2.6 | 0.00 | 0.00 | 0.00 | 35 | 1018.2 |
| 20260503231624 | 58 | 270 | 3.5 | 3.5 | 0.00 | 0.00 | 0.00 | 34 | 1018.3 |
| 20260503230648 | 59 | 180 | 4.3 | 7.0 | 0.00 | 0.00 | 0.00 | 34 | 1018.3 |
| 20260503225624 | 60 | 180 | 3.5 | 5.2 | 0.00 | 0.00 | 0.00 | 33 | 1018.3 |
| 20260503224708 | 60 | 180 | 5.2 | 7.0 | 0.00 | 0.00 | 0.00 | 33 | 1018.5 |
| 20260503223624 | 60 | 135 | 7.8 | 9.6 | 0.00 | 0.00 | 0.00 | 33 | 1018.4 |
| 20260503222728 | 59 | 180 | 4.3 | 6.1 | 0.00 | 0.00 | 0.00 | 34 | 1018.4 |
| 20260503221644 | 59 | 180 | 1.7 | 3.5 | 0.00 | 0.00 | 0.00 | 36 | 1018.4 |
| 20260503220648 | 59 | 180 | 3.5 | 4.3 | 0.00 | 0.00 | 0.00 | 36 | 1018.5 |
| 20260503215624 | 59 | 180 | 1.7 | 2.6 | 0.00 | 0.00 | 0.00 | 35 | 1018.5 |
| 20260503214708 | 59 | 270 | 4.3 | 6.1 | 0.00 | 0.00 | 0.00 | 35 | 1018.6 |
| 20260503213644 | 59 | 225 | 3.5 | 4.3 | 0.00 | 0.00 | 0.00 | 36 | 1018.6 |
| 20260503212648 | 59 | 270 | 1.7 | 1.7 | 0.00 | 0.00 | 0.00 | 35 | 1018.3 |
| 20260503211724 | 59 | 315 | 0.9 | 1.7 | 0.00 | 0.00 | 0.00 | 36 | 1018.6 |
| 20260503210648 | 60 | 180 | 2.6 | 3.5 | 0.00 | 0.00 | 0.00 | 35 | 1018.4 |
| 20260503205644 | 60 | 180 | 0.9 | 1.7 | 0.00 | 0.00 | 0.00 | 35 | 1018.3 |